TimeEST,TemperatureF,Dew PointF,Humidity,Sea Level PressureIn,VisibilityMPH,Wind Direction,Wind SpeedMPH,Gust SpeedMPH,PrecipitationIn,Events,Conditions,WindDirDegrees,DateUTC
12:52 AM,30.0,23.0,75,29.96,9.0,WNW,6.9,-,N/A,,Partly Cloudy,290,2013-02-24 05:52:00
1:52 AM,28.0,21.9,78,29.98,10.0,WNW,6.9,-,N/A,,Clear,300,2013-02-24 06:52:00
2:52 AM,28.0,23.0,81,29.99,10.0,WNW,5.8,-,N/A,,Clear,290,2013-02-24 07:52:00
3:33 AM,28.4,23.0,80,29.97,8.0,NW,6.9,-,N/A,,Mostly Cloudy,310,2013-02-24 08:33:00
3:52 AM,27.0,23.0,85,29.99,7.0,WNW,6.9,-,N/A,,Mostly Cloudy,290,2013-02-24 08:52:00
4:52 AM,27.0,23.0,85,30.01,8.0,NNW,10.4,-,N/A,,Mostly Cloudy,340,2013-02-24 09:52:00
6:52 AM,26.1,21.0,81,30.07,9.0,WNW,4.6,-,N/A,,Mostly Cloudy,300,2013-02-24 11:52:00
7:52 AM,26.1,21.0,81,30.08,9.0,WNW,4.6,-,N/A,,Mostly Cloudy,290,2013-02-24 12:52:00
8:52 AM,28.0,21.0,75,30.11,9.0,NNW,9.2,-,N/A,,Overcast,340,2013-02-24 13:52:00
9:52 AM,28.9,21.0,72,30.13,9.0,NW,5.8,-,N/A,,Mostly Cloudy,310,2013-02-24 14:52:00
10:23 AM,30.2,21.2,69,30.10,10.0,NNW,6.9,-,N/A,,Scattered Clouds,340,2013-02-24 15:23:00
10:52 AM,32.0,21.9,66,30.13,10.0,WNW,9.2,-,N/A,,Scattered Clouds,290,2013-02-24 15:52:00
11:52 AM,34.0,21.9,61,30.14,10.0,NNW,3.5,-,N/A,,Partly Cloudy,330,2013-02-24 16:52:00
12:52 PM,37.9,23.0,55,30.12,10.0,West,5.8,-,N/A,,Partly Cloudy,270,2013-02-24 17:52:00
1:52 PM,39.0,21.9,50,30.11,10.0,West,5.8,16.1,N/A,,Partly Cloudy,280,2013-02-24 18:52:00
2:52 PM,42.1,24.1,49,30.10,10.0,WNW,8.1,-,N/A,,Partly Cloudy,300,2013-02-24 19:52:00
3:52 PM,43.0,23.0,45,30.10,10.0,NW,11.5,-,N/A,,Partly Cloudy,320,2013-02-24 20:52:00
4:52 PM,42.1,23.0,47,30.11,10.0,NW,8.1,-,N/A,,Clear,320,2013-02-24 21:52:00
5:52 PM,41.0,23.0,49,30.12,10.0,NW,3.5,-,N/A,,Clear,320,2013-02-24 22:52:00
6:52 PM,37.9,23.0,55,30.12,10.0,NNW,4.6,-,N/A,,Clear,330,2013-02-24 23:52:00
7:52 PM,35.1,24.1,64,30.14,10.0,North,6.9,-,N/A,,Clear,10,2013-02-25 00:52:00
8:52 PM,34.0,23.0,64,30.16,10.0,North,3.5,-,N/A,,Clear,10,2013-02-25 01:52:00
9:52 PM,33.1,23.0,66,30.16,10.0,NE,3.5,-,N/A,,Clear,40,2013-02-25 02:52:00
10:52 PM,30.9,21.9,69,30.15,10.0,East,5.8,-,N/A,,Clear,80,2013-02-25 03:52:00
11:52 PM,28.9,21.9,75,30.14,10.0,East,6.9,-,N/A,,Clear,80,2013-02-25 04:52:00